CZ-6A DEB, 68407

Orbit data source: Space-Track

CZ-6A DEB, 68407 is space debris in SSO originally from a launch on Fri, 11 Nov 2022 UTC launched from the Taiyaun Space Center, China (TSC). Debris objects in space refer to the collection of defunct objects orbiting the Earth. Examples of debris include non-operational satellites, rocket bodies, and fragments generated from explosions, collisions, or faulty payload assembly.

Loading next visibility...
Identifier
68407, 2022-151AJJ
Orbit
SSO
Country
Flag of CNCN / PRC
Related business
Manufacturer
SAST
Mission
Spacecraft
Bus & Motor
Unknown
Mass
Unknown
Launch date (UTC)
2022-11-11 (4 years ago)
Launch vehicle
Unknown
Launch site
Taiyaun Space Center, China (TSC)
Object type
Payload
Rocket body
Debris
Shape & HBR
Unknown shape, 1.1 m
Radar Cross Section
Medium (>0.1 m² and <1 m²)

Expand to show TLE details & history
Last TLE update: 17 hours ago

TLE from 17 hours ago
0 CZ-6A DEB
1 68407U 22151AJJ 26236.21886950  .00012388  00000-0  18751-2 0  9990
2 68407  98.7964 334.8473 0088082  99.2269 261.8912 14.71727681175034
Epoch: 2026-08-24T05:15Z
TLE epoch observation values (Epoch: 2026-08-24T05:15:10.324Z)
Latitude
0.00002°
Longitude
-76.44944°
Altitude
667.815 km
Speed
7.518 km/s
True Right ascension
22h 19m 23s
True Declination
0° 00' 00"
Sunlit
Object was in full shadow at epoch
Visualization orbit readout
Latitude
Unknown
Longitude
Unknown
Altitude
Unknown
Speed
Unknown
Apparent Right ascension
Unknown
Apparent Declination
Unknown
Sunlit
N/A
Visualization observer readout
Local Sidereal Time
13:44:59
Azimuth
Unknown
Elevation
Unknown
Doppler factor
Unknown
Orbital elements
Apogee altitude
714.58 km
Perigee altitude
590.723 km
Semi-major axis
7,030.789 km
Eccentricity
0.00881
Inclination
98.7964°
RAAN
334.8473°
Arg. of periapsis
99.2269°
True anomaly
260.89355°
Mean anomaly
261.8912°
Eccentric anomaly
261.39221°
Mean motion
3.6816 °/min
Orbital period
97.78 mins
BSTAR
0.0018751
Loading maneuver chart data...
Computing Atmospheric mass density...
Loading historical data...
Loading historical data...
Loading historical data...
Loading historical data...
Loading historical data...
Loading historical data...
Loading historical data...

Documentation

Showing up to 5 results
|